Location: Unspecified
(0.0000°N, 0.0000°E)
Time: 07:07:57
(UTC+00:00)

Freja - Pass Details

Date: 30 May 2024
Orbit: 548 x 1731 km, 63.0° (Epoch: 13 June)

Event Time Altitude Azimuth Distance (km) Brightness Sun altitude
Rises 18:47:50 0° 11° (N) 2,774 8.6 -11.6°
Reaches altitude 10° 18:51:35 10° 47° (NE) 1,813 7.2 -12.5°
Maximum altitude 18:52:52 11° 66° (ENE) 1,728 7.0 -12.8°
Enters shadow 18:53:07 11° 70° (ENE) 1,731 6.9 -12.8°
